map of ZNZ home
ZNZ - Airport
Location
City:  Zanzibar City, Zanzibar West (Mjini Magharibi), Tanzania
Name:Abeid Amani Karume International Airport
ICAO:HTZA
IATA:ZNZ

Details
Type:Airport (Aerodrome, Airfield)
Use:Public/Civil, International (customs port of entry)
Latitude:613'19"S (-6.222024)
Longitude:3913'30"E (39.224886)
Datum:WGS 1984
Elevation:54 ft (16 m)
Variation:1.80W (WMM2015 magnetic declination)
0.01 annual change
Runways:1
Longest:8077 × 148 ft (2462 × 45 m), paved

Time
Time Zone:UTC+3
Local Time:

Weather
METAR:HTZA 210900Z 20008KT 9999 SCT020 29/25 Q1018 NOSIG
TAF:HTZA 210500Z 2106/2206 21010KT 9999 BKN018 SCT080
BECMG 2110/2112 15015KT SCT018 SCT090
BECMG 2118/2120 15005KT

Related Locations
Nearby:
Farthest:NHV: 11397 mi / 18342 km
Nuku Hiva, Marquesas Islands, PF

Find:

   beyond  
but within

Other Information
Maps:
NOTAMs:
Links:
Sources:

  
  • flag of Tanzania
  

Sectional Chart

Flight Planning
at skyvector.com

Satellite Image

Google Maps Satellite view

 

Copyright © 2004-2018 Karl L. Swartz. All rights reserved.
The Great Circle Mapper name and logo are trademarks of the Great Circle Mapper.
All other trademarks mentioned herein belong to their respective owners.
Please see credits for attibutions and further copyright information.

  Follow gcmap on Facebook Follow gcmap on Twitter Follow gcmap on Google+ GCmap on LinkedIn

hCard Microformat

Geo Microformat